| time (UTC) | temp F | wind direction | speed MPH | gust MPH | rain 1hr in | rain 24hr in | rain mn in | humidity % | barometer mb |
| 20260901015651 | 84 | 66 | 7.0 | 11.0 | 0.00 | 0.00 | 0.75 | 80 | 1014.9 |
| 20260901015147 | 84 | 77 | 2.0 | 6.0 | 0.00 | 0.00 | 0.75 | 81 | 1015.2 |
| 20260901014647 | 84 | 89 | 3.0 | 6.0 | 0.00 | 0.00 | 0.75 | 81 | 1014.9 |
| 20260901014146 | 84 | 115 | 2.0 | 6.0 | 0.00 | 0.00 | 0.75 | 81 | 1014.9 |
| 20260901013648 | 84 | 62 | 5.0 | 11.0 | 0.00 | 0.00 | 0.75 | 80 | 1014.6 |
| 20260901013146 | 84 | 74 | 6.0 | 7.0 | 0.00 | 0.00 | 0.75 | 80 | 1014.6 |
| 20260901012651 | 84 | 68 | 8.0 | 12.0 | 0.00 | 0.00 | 0.75 | 79 | 1014.2 |
| 20260901012149 | 84 | 75 | 8.0 | 8.0 | 0.00 | 0.00 | 0.75 | 80 | 1014.2 |
| 20260901011647 | 84 | 37 | 5.0 | 7.0 | 0.00 | 0.00 | 0.75 | 81 | 1014.2 |
| 20260901011147 | 84 | 70 | 5.0 | 8.0 | 0.00 | 0.00 | 0.75 | 81 | 1014.2 |
| 20260901010647 | 84 | 81 | 5.0 | 11.0 | 0.00 | 0.00 | 0.75 | 81 | 1014.6 |
| 20260901010146 | 84 | 60 | 4.0 | 8.0 | 0.00 | 0.00 | 0.75 | 81 | 1014.2 |
| 20260901005646 | 84 | 83 | 5.0 | 8.0 | 0.00 | 0.00 | 0.75 | 80 | 1014.2 |
| 20260901005147 | 84 | 64 | 5.0 | 8.0 | 0.00 | 0.00 | 0.75 | 79 | 1014.2 |
| 20260901004651 | 84 | 81 | 2.0 | 7.0 | 0.00 | 0.00 | 0.75 | 79 | 1014.2 |
| 20260901004146 | 84 | 144 | 1.0 | 9.0 | 0.00 | 0.00 | 0.75 | 78 | 1014.2 |
| 20260901003647 | 85 | 78 | 4.0 | 9.0 | 0.00 | 0.00 | 0.75 | 77 | 1014.2 |
| 20260901003146 | 85 | 57 | 3.0 | 8.0 | 0.00 | 0.00 | 0.75 | 76 | 1014.2 |
| 20260901002647 | 85 | 59 | 0.0 | 7.0 | 0.00 | 0.00 | 0.75 | 75 | 1014.2 |
| 20260901002146 | 85 | 72 | 4.0 | 8.0 | 0.00 | 0.00 | 0.75 | 74 | 1014.2 |
| 20260901001648 | 85 | 87 | 4.0 | 9.0 | 0.00 | 0.00 | 0.75 | 74 | 1014.2 |
| 20260901001146 | 85 | 108 | 1.0 | 11.0 | 0.00 | 0.00 | 0.75 | 74 | 1014.2 |
| 20260901000647 | 86 | 63 | 3.0 | 7.0 | 0.00 | 0.00 | 0.75 | 74 | 1014.2 |
| 20260901000146 | 86 | 230 | 1.0 | 6.0 | 0.00 | 0.00 | 0.75 | 73 | 1014.2 |
| 20260831235646 | 86 | 120 | 4.0 | 9.0 | 0.00 | 0.00 | 0.75 | 73 | 1014.2 |
| 20260831235146 | 86 | 111 | 2.0 | 6.0 | 0.00 | 0.00 | 0.75 | 73 | 1014.6 |
| 20260831234648 | 86 | 65 | 3.0 | 5.0 | 0.00 | 0.00 | 0.75 | 74 | 1014.2 |
| 20260831234147 | 87 | 352 | 0.0 | 4.0 | 0.00 | 0.00 | 0.75 | 74 | 1014.6 |
| 20260831233646 | 87 | 135 | 1.0 | 6.0 | 0.00 | 0.00 | 0.75 | 73 | 1014.6 |
| 20260831233146 | 87 | 57 | 0.0 | 6.0 | 0.00 | 0.00 | 0.75 | 73 | 1014.6 |
| 20260831232646 | 87 | 64 | 5.0 | 11.0 | 0.00 | 0.00 | 0.75 | 72 | 1014.6 |
| 20260831232147 | 87 | 92 | 5.0 | 7.0 | 0.00 | 0.00 | 0.75 | 71 | 1014.9 |
| 20260831231646 | 87 | 73 | 5.0 | 12.0 | 0.00 | 0.00 | 0.75 | 70 | 1014.9 |
| 20260831231146 | 87 | 79 | 3.0 | 5.0 | 0.00 | 0.00 | 0.75 | 69 | 1014.9 |
| 20260831230646 | 87 | 100 | 6.0 | 9.0 | 0.00 | 0.00 | 0.75 | 68 | 1014.9 |
| 20260831230146 | 87 | 34 | 2.0 | 7.0 | 0.00 | 0.00 | 0.75 | 68 | 1014.9 |
| 20260831225646 | 88 | 67 | 6.0 | 9.0 | 0.00 | 0.00 | 0.75 | 67 | 1014.9 |
| 20260831225146 | 88 | 74 | 4.0 | 7.0 | 0.00 | 0.00 | 0.75 | 68 | 1014.6 |
| 20260831224646 | 87 | 97 | 3.0 | 7.0 | 0.00 | 0.00 | 0.75 | 71 | 1014.9 |
| 20260831224146 | 87 | 103 | 3.0 | 6.0 | 0.00 | 0.00 | 0.75 | 72 | 1014.9 |
| 20260831223647 | 87 | 69 | 5.0 | 12.0 | 0.00 | 0.00 | 0.75 | 71 | 1014.9 |
| 20260831223146 | 87 | 62 | 5.0 | 9.0 | 0.00 | 0.00 | 0.75 | 71 | 1014.9 |
| 20260831222646 | 88 | 84 | 7.0 | 13.0 | 0.00 | 0.00 | 0.75 | 69 | 1015.2 |
| 20260831222146 | 88 | 84 | 3.0 | 7.0 | 0.00 | 0.00 | 0.75 | 69 | 1014.9 |
| 20260831221646 | 88 | 74 | 5.0 | 8.0 | 0.00 | 0.00 | 0.75 | 69 | 1014.9 |
| 20260831221147 | 88 | 70 | 6.0 | 12.0 | 0.00 | 0.00 | 0.75 | 69 | 1014.9 |
| 20260831220647 | 88 | 59 | 4.0 | 8.0 | 0.00 | 0.00 | 0.75 | 69 | 1014.9 |
| 20260831220147 | 88 | 76 | 3.0 | 7.0 | 0.00 | 0.00 | 0.75 | 69 | 1014.9 |
| 20260831215646 | 89 | 35 | 3.0 | 11.0 | 0.00 | 0.00 | 0.75 | 67 | 1014.6 |
| 20260831215146 | 89 | 186 | 1.0 | 11.0 | 0.00 | 0.00 | 0.75 | 66 | 1014.9 |
| 20260831214646 | 89 | 159 | 5.0 | 10.0 | 0.00 | 0.00 | 0.75 | 67 | 1014.9 |
| 20260831214146 | 89 | 71 | 5.0 | 11.0 | 0.00 | 0.00 | 0.75 | 66 | 1014.9 |
| 20260831213647 | 88 | 130 | 2.0 | 8.0 | 0.00 | 0.00 | 0.75 | 68 | 1014.6 |
| 20260831213147 | 89 | 64 | 4.0 | 7.0 | 0.00 | 0.00 | 0.75 | 67 | 1014.9 |
| 20260831212646 | 88 | 95 | 5.0 | 7.0 | 0.00 | 0.00 | 0.75 | 66 | 1014.9 |
| 20260831212153 | 88 | 43 | 6.0 | 9.0 | 0.00 | 0.00 | 0.75 | 67 | 1014.9 |
| 20260831211649 | 88 | 125 | 3.0 | 11.0 | 0.00 | 0.00 | 0.75 | 70 | 1014.9 |
| 20260831211146 | 88 | 101 | 4.0 | 11.0 | 0.00 | 0.00 | 0.75 | 71 | 1014.9 |
| 20260831210647 | 88 | 111 | 6.0 | 7.0 | 0.00 | 0.00 | 0.75 | 71 | 1014.9 |
| 20260831210149 | 88 | 73 | 6.0 | 9.0 | 0.00 | 0.00 | 0.75 | 70 | 1015.2 |
| 20260831205647 | 88 | 99 | 7.0 | 12.0 | 0.00 | 0.00 | 0.75 | 70 | 1015.2 |
| 20260831205147 | 88 | 57 | 4.0 | 10.0 | 0.00 | 0.00 | 0.75 | 70 | 1014.9 |
| 20260831204646 | 89 | 81 | 6.0 | 12.0 | 0.00 | 0.00 | 0.75 | 70 | 1015.2 |
| 20260831204148 | 88 | 102 | 2.0 | 7.0 | 0.00 | 0.00 | 0.75 | 71 | 1014.9 |
| 20260831203646 | 88 | 38 | 5.0 | 12.0 | 0.00 | 0.00 | 0.75 | 72 | 1014.9 |
| 20260831203147 | 88 | 80 | 5.0 | 11.0 | 0.00 | 0.00 | 0.75 | 71 | 1014.9 |
| 20260831202648 | 87 | 41 | 2.0 | 12.0 | 0.00 | 0.00 | 0.75 | 73 | 1015.2 |
| 20260831202148 | 88 | 79 | 4.0 | 13.0 | 0.00 | 0.00 | 0.75 | 71 | 1014.9 |
| 20260831201647 | 88 | 59 | 6.0 | 15.0 | 0.00 | 0.00 | 0.75 | 72 | 1015.2 |
| 20260831201147 | 89 | 92 | 6.0 | 10.0 | 0.00 | 0.00 | 0.75 | 69 | 1015.2 |
| 20260831200646 | 90 | 85 | 7.0 | 12.0 | 0.00 | 0.00 | 0.75 | 69 | 1015.2 |
| 20260831200147 | 89 | 20 | 2.0 | 7.0 | 0.00 | 0.00 | 0.75 | 69 | 1015.2 |
| 20260831195647 | 89 | 65 | 7.0 | 10.0 | 0.00 | 0.00 | 0.75 | 69 | 1015.2 |
| 20260831195146 | 88 | 75 | 6.0 | 8.0 | 0.00 | 0.00 | 0.75 | 73 | 1015.6 |
| 20260831194646 | 87 | 78 | 6.0 | 13.0 | 0.00 | 0.00 | 0.75 | 74 | 1015.6 |
| 20260831194148 | 86 | 73 | 6.0 | 14.0 | 0.00 | 0.00 | 0.75 | 74 | 1015.6 |
| 20260831193648 | 86 | 74 | 8.0 | 11.0 | 0.00 | 0.00 | 0.75 | 75 | 1015.9 |
| 20260831193147 | 86 | 103 | 3.0 | 4.0 | 0.00 | 0.00 | 0.75 | 80 | 1015.9 |
| 20260831192646 | 85 | 63 | 0.0 | 6.0 | 0.00 | 0.00 | 0.75 | 81 | 1015.9 |
| 20260831192150 | 84 | 155 | 0.0 | 7.0 | 0.00 | 0.00 | 0.75 | 82 | 1015.6 |
| 20260831191649 | 84 | 154 | 5.0 | 6.0 | 0.00 | 0.00 | 0.75 | 84 | 1015.9 |
| 20260831191148 | 83 | 175 | 3.0 | 8.0 | 0.00 | 0.00 | 0.75 | 86 | 1015.9 |
| 20260831190656 | 82 | 150 | 5.0 | 7.0 | 0.00 | 0.00 | 0.75 | 90 | 1015.6 |
| 20260831190147 | 82 | 167 | 5.0 | 7.0 | 0.00 | 0.00 | 0.75 | 91 | 1015.9 |
| 20260831185646 | 81 | 189 | 5.0 | 5.0 | 0.00 | 0.00 | 0.75 | 93 | 1015.9 |
| 20260831185146 | 80 | 179 | 2.0 | 6.0 | 0.00 | 0.00 | 0.75 | 94 | 1015.9 |
| 20260831184648 | 79 | 174 | 3.0 | 6.0 | 0.61 | 0.00 | 0.75 | 93 | 1016.3 |
| 20260831184147 | 79 | 221 | 5.0 | 14.0 | 1.51 | 0.00 | 0.75 | 91 | 1016.3 |
| 20260831183647 | 81 | 95 | 5.0 | 9.0 | 0.69 | 0.00 | 0.59 | 88 | 1016.3 |
| 20260831183147 | 84 | 125 | 2.0 | 12.0 | 0.14 | 0.00 | 0.50 | 85 | 1016.3 |
| 20260831182647 | 85 | 54 | 9.0 | 11.0 | 0.00 | 0.00 | 0.48 | 79 | 1016.3 |
| 20260831182146 | 86 | 62 | 7.0 | 9.0 | 0.00 | 0.00 | 0.48 | 78 | 1016.3 |
| 20260831181646 | 85 | 44 | 6.0 | 14.0 | 0.00 | 0.00 | 0.48 | 78 | 1016.3 |
| 20260831181147 | 85 | 78 | 3.0 | 15.0 | 0.00 | 0.00 | 0.48 | 78 | 1016.3 |
| 20260831180647 | 84 | 55 | 7.0 | 15.0 | 0.00 | 0.00 | 0.48 | 82 | 1016.3 |
| 20260831180149 | 82 | 41 | 4.0 | 9.0 | 0.00 | 0.00 | 0.48 | 87 | 1016.6 |
| 20260831175646 | 82 | 52 | 9.0 | 13.0 | 0.00 | 0.00 | 0.48 | 84 | 1016.9 |
| 20260831175146 | 82 | 58 | 7.0 | 14.0 | 0.00 | 0.00 | 0.48 | 84 | 1016.6 |
| 20260831174646 | 85 | 64 | 11.0 | 17.0 | 0.00 | 0.00 | 0.48 | 76 | 1016.3 |
| 20260831174147 | 85 | 53 | 10.0 | 19.0 | 0.00 | 0.00 | 0.48 | 76 | 1016.3 |
| 20260831173646 | 85 | 74 | 5.0 | 16.0 | 0.00 | 0.00 | 0.48 | 77 | 1016.6 |
| 20260831173147 | 85 | 76 | 10.0 | 18.0 | 0.14 | 0.00 | 0.48 | 82 | 1016.6 |
| 20260831172646 | 82 | 73 | 8.0 | 11.0 | 0.33 | 0.00 | 0.48 | 87 | 1016.3 |
| 20260831172147 | 85 | 55 | 8.0 | 15.0 | 0.19 | 0.00 | 0.45 | 82 | 1016.6 |
| 20260831171647 | 87 | 34 | 5.0 | 17.0 | 0.00 | 0.00 | 0.42 | 77 | 1016.6 |
| 20260831171146 | 87 | 67 | 7.0 | 9.0 | 0.00 | 0.00 | 0.42 | 75 | 1016.6 |
| 20260831170646 | 87 | 53 | 8.0 | 11.0 | 0.00 | 0.00 | 0.42 | 74 | 1016.6 |
| 20260831170147 | 87 | 48 | 9.0 | 13.0 | 0.00 | 0.00 | 0.42 | 75 | 1016.6 |
| 20260831165648 | 87 | 50 | 5.0 | 10.0 | 0.00 | 0.00 | 0.42 | 76 | 1016.6 |
| 20260831165146 | 86 | 10 | 5.0 | 5.0 | 0.00 | 0.00 | 0.42 | 78 | 1016.6 |
| 20260831164650 | 86 | 24 | 8.0 | 10.0 | 0.00 | 0.00 | 0.42 | 78 | 1016.6 |
| 20260831164146 | 87 | 26 | 3.0 | 8.0 | 0.00 | 0.00 | 0.42 | 77 | 1016.6 |
| 20260831163648 | 87 | 54 | 4.0 | 6.0 | 0.00 | 0.00 | 0.42 | 77 | 1016.6 |
| 20260831163146 | 87 | 35 | 6.0 | 11.0 | 0.00 | 0.00 | 0.42 | 78 | 1016.6 |
| 20260831162647 | 87 | 51 | 8.0 | 9.0 | 0.00 | 0.00 | 0.42 | 78 | 1016.9 |
| 20260831162146 | 87 | 80 | 3.0 | 13.0 | 0.00 | 0.00 | 0.42 | 76 | 1016.9 |
| 20260831161649 | 87 | 35 | 6.0 | 12.0 | 0.00 | 0.00 | 0.42 | 76 | 1016.9 |
| 20260831161148 | 87 | 85 | 5.0 | 11.0 | 0.00 | 0.00 | 0.42 | 72 | 1016.9 |
| 20260831160647 | 87 | 123 | 7.0 | 12.0 | 0.00 | 0.00 | 0.42 | 72 | 1016.9 |
| 20260831160146 | 87 | 51 | 8.0 | 11.0 | 0.00 | 0.00 | 0.42 | 72 | 1016.9 |
| 20260831155647 | 87 | 95 | 3.0 | 7.0 | 0.00 | 0.00 | 0.42 | 73 | 1016.9 |
| 20260831155147 | 86 | 63 | 6.0 | 11.0 | 0.00 | 0.00 | 0.42 | 73 | 1016.9 |
| 20260831154647 | 86 | 123 | 5.0 | 12.0 | 0.00 | 0.00 | 0.42 | 75 | 1016.9 |
| 20260831154146 | 86 | 58 | 11.0 | 11.0 | 0.00 | 0.00 | 0.42 | 75 | 1016.9 |
| 20260831153647 | 85 | 35 | 7.0 | 18.0 | 0.00 | 0.00 | 0.42 | 81 | 1016.6 |
| 20260831153148 | 83 | 58 | 6.0 | 6.0 | 0.00 | 0.00 | 0.42 | 87 | 1016.3 |
| 20260831152651 | 81 | 63 | 3.0 | 5.0 | 0.00 | 0.00 | 0.42 | 89 | 1016.3 |
| 20260831152147 | 81 | 51 | 3.0 | 3.0 | 0.00 | 0.00 | 0.42 | 90 | 1016.3 |
| 20260831151646 | 80 | 325 | 2.0 | 4.0 | 0.00 | 0.00 | 0.42 | 90 | 1016.6 |
| 20260831151148 | 80 | 44 | 0.0 | 5.0 | 0.00 | 0.00 | 0.42 | 89 | 1016.6 |
| 20260831150646 | 80 | 16 | 2.0 | 7.0 | 0.00 | 0.00 | 0.42 | 89 | 1016.6 |
| 20260831150148 | 80 | 19 | 2.0 | 5.0 | 0.00 | 0.00 | 0.42 | 90 | 1016.6 |
| 20260831145648 | 79 | 13 | 1.0 | 6.0 | 0.05 | 0.00 | 0.42 | 93 | 1016.3 |
| 20260831145147 | 79 | 32 | 3.0 | 9.0 | 1.16 | 0.00 | 0.42 | 93 | 1016.6 |
| 20260831144648 | 80 | 45 | 9.0 | 11.0 | 1.18 | 0.00 | 0.40 | 91 | 1016.6 |
| 20260831144147 | 85 | 146 | 7.0 | 22.0 | 0.38 | 0.00 | 0.27 | 81 | 1016.6 |
| 20260831143646 | 86 | 59 | 5.0 | 7.0 | 0.00 | 0.00 | 0.20 | 76 | 1015.9 |
| 20260831143146 | 86 | 174 | 3.0 | 10.0 | 0.00 | 0.00 | 0.20 | 76 | 1016.3 |
| 20260831142647 | 87 | 72 | 8.0 | 10.0 | 0.00 | 0.00 | 0.20 | 76 | 1015.9 |
| 20260831142147 | 87 | 39 | 4.0 | 8.0 | 0.00 | 0.00 | 0.20 | 76 | 1015.9 |
| 20260831141646 | 87 | 66 | 9.0 | 11.0 | 0.00 | 0.00 | 0.20 | 77 | 1015.9 |
| 20260831141147 | 87 | 64 | 8.0 | 11.0 | 0.00 | 0.00 | 0.20 | 77 | 1015.9 |
| 20260831140647 | 86 | 9 | 3.0 | 7.0 | 0.00 | 0.00 | 0.20 | 79 | 1015.9 |
| 20260831140147 | 86 | 113 | 5.0 | 13.0 | 0.00 | 0.00 | 0.20 | 79 | 1016.3 |
| 20260831135646 | 86 | 62 | 6.0 | 7.0 | 0.00 | 0.00 | 0.20 | 80 | 1015.9 |
| 20260831135146 | 85 | 61 | 7.0 | 11.0 | 0.00 | 0.00 | 0.20 | 81 | 1015.9 |
| 20260831134647 | 85 | 67 | 7.0 | 8.0 | 0.00 | 0.00 | 0.20 | 81 | 1015.9 |
| 20260831134146 | 85 | 68 | 6.0 | 7.0 | 0.00 | 0.00 | 0.20 | 82 | 1015.9 |
| 20260831133646 | 85 | 69 | 8.0 | 9.0 | 0.00 | 0.00 | 0.20 | 83 | 1015.9 |
| 20260831133147 | 84 | 38 | 3.0 | 7.0 | 0.00 | 0.00 | 0.20 | 85 | 1015.9 |
| 20260831132646 | 84 | 65 | 4.0 | 6.0 | 0.00 | 0.00 | 0.20 | 86 | 1015.9 |
| 20260831132147 | 83 | 59 | 3.0 | 6.0 | 0.00 | 0.00 | 0.20 | 87 | 1015.9 |
| 20260831131646 | 83 | 51 | 2.0 | 9.0 | 0.00 | 0.00 | 0.20 | 88 | 1015.6 |
| 20260831131147 | 82 | 77 | 3.0 | 6.0 | 0.00 | 0.00 | 0.20 | 88 | 1015.2 |
| 20260831130647 | 82 | 39 | 3.0 | 6.0 | 0.00 | 0.00 | 0.20 | 88 | 1015.6 |
| 20260831130150 | 81 | 45 | 4.0 | 5.0 | 0.00 | 0.00 | 0.20 | 90 | 1015.6 |
| 20260831125647 | 81 | 14 | 2.0 | 4.0 | 0.00 | 0.00 | 0.20 | 90 | 1015.6 |
| 20260831125148 | 81 | 339 | 2.0 | 5.0 | 0.00 | 0.00 | 0.20 | 89 | 1015.6 |
| 20260831124646 | 81 | 68 | 3.0 | 4.0 | 0.00 | 0.00 | 0.20 | 89 | 1015.6 |
| 20260831124147 | 80 | 31 | 3.0 | 4.0 | 0.00 | 0.00 | 0.20 | 92 | 1015.2 |
| 20260831123647 | 80 | 341 | 0.0 | 3.0 | 0.02 | 0.00 | 0.20 | 92 | 1015.6 |
| 20260831123149 | 80 | 67 | 3.0 | 4.0 | 0.02 | 0.00 | 0.20 | 93 | 1015.2 |
| 20260831122647 | 80 | 117 | 1.0 | 3.0 | 0.00 | 0.00 | 0.20 | 93 | 1015.2 |
| 20260831122149 | 79 | 107 | 2.0 | 3.0 | 0.00 | 0.00 | 0.20 | 93 | 1015.2 |
| 20260831121647 | 79 | 80 | 2.0 | 4.0 | 0.00 | 0.00 | 0.20 | 93 | 1015.2 |
| 20260831121149 | 79 | 73 | 3.0 | 5.0 | 0.00 | 0.00 | 0.20 | 93 | 1015.2 |
| 20260831120648 | 79 | 31 | 2.0 | 3.0 | 0.00 | 0.00 | 0.20 | 92 | 1015.2 |
| 20260831120148 | 79 | 34 | 0.0 | 4.0 | 0.00 | 0.00 | 0.20 | 92 | 1014.9 |
| 20260831115646 | 79 | 65 | 1.0 | 5.0 | 0.00 | 0.00 | 0.20 | 93 | 1014.9 |
| 20260831115149 | 78 | 104 | 2.0 | 5.0 | 0.00 | 0.00 | 0.20 | 93 | 1014.6 |
| 20260831114647 | 78 | 319 | 2.0 | 6.0 | 0.00 | 0.00 | 0.20 | 93 | 1014.6 |
| 20260831114150 | 78 | 27 | 3.0 | 5.0 | 0.00 | 0.00 | 0.20 | 93 | 1014.9 |
| 20260831113646 | 78 | 47 | 5.0 | 8.0 | 0.00 | 0.00 | 0.20 | 94 | 1014.6 |
| 20260831113146 | 77 | 58 | 4.0 | 5.0 | 0.00 | 0.00 | 0.20 | 96 | 1014.6 |
| 20260831112647 | 77 | 266 | 0.0 | 5.0 | 0.00 | 0.00 | 0.20 | 97 | 1014.6 |
| 20260831112146 | 77 | 4 | 2.0 | 3.0 | 0.00 | 0.00 | 0.20 | 97 | 1014.6 |
| 20260831111647 | 77 | 130 | 0.0 | 3.0 | 0.14 | 0.00 | 0.20 | 97 | 1014.6 |
| 20260831111146 | 77 | 89 | 0.0 | 3.0 | 0.35 | 0.00 | 0.20 | 96 | 1014.6 |
| 20260831110647 | 77 | 65 | 2.0 | 7.0 | 0.85 | 0.00 | 0.18 | 96 | 1014.9 |
| 20260831110147 | 77 | 45 | 2.0 | 8.0 | 0.64 | 0.00 | 0.12 | 95 | 1015.2 |
| 20260831105646 | 78 | 290 | 2.0 | 10.0 | 0.19 | 0.00 | 0.04 | 93 | 1015.2 |
| 20260831105149 | 79 | 144 | 8.0 | 13.0 | 0.09 | 0.00 | 0.02 | 90 | 1014.9 |
| 20260831104646 | 82 | 136 | 7.0 | 10.0 | 0.00 | 0.00 | 0.00 | 88 | 1014.6 |
| 20260831104146 | 82 | 185 | 0.0 | 3.0 | 0.00 | 0.00 | 0.00 | 87 | 1014.6 |
| 20260831103647 | 82 | 62 | 3.0 | 4.0 | 0.00 | 0.00 | 0.00 | 86 | 1014.6 |
| 20260831103146 | 82 | 57 | 2.0 | 3.0 | 0.00 | 0.00 | 0.00 | 86 | 1014.6 |
| 20260831102646 | 82 | 15 | 0.0 | 3.0 | 0.00 | 0.00 | 0.00 | 86 | 1014.6 |
| 20260831102146 | 82 | 52 | 3.0 | 4.0 | 0.00 | 0.00 | 0.00 | 86 | 1014.6 |
| 20260831101648 | 82 | 84 | 0.0 | 3.0 | 0.00 | 0.00 | 0.00 | 86 | 1014.2 |
| 20260831101147 | 82 | 37 | 1.0 | 2.0 | 0.00 | 0.00 | 0.00 | 85 | 1014.6 |
| 20260831100646 | 82 | 51 | 2.0 | 3.0 | 0.00 | 0.00 | 0.00 | 85 | 1014.6 |
| 20260831100148 | 82 | 52 | 3.0 | 3.0 | 0.00 | 0.00 | 0.00 | 86 | 1014.6 |
| 20260831095646 | 83 | 74 | 3.0 | 3.0 | 0.00 | 0.00 | 0.00 | 85 | 1014.6 |
| 20260831095146 | 83 | 17 | 3.0 | 4.0 | 0.00 | 0.00 | 0.00 | 85 | 1014.2 |
| 20260831094648 | 83 | 22 | 0.0 | 4.0 | 0.00 | 0.00 | 0.00 | 85 | 1014.2 |
| 20260831094147 | 83 | 84 | 2.0 | 4.0 | 0.00 | 0.00 | 0.00 | 85 | 1014.2 |
| 20260831093646 | 83 | 53 | 2.0 | 4.0 | 0.00 | 0.00 | 0.00 | 85 | 1014.2 |
| 20260831093147 | 83 | 55 | 3.0 | 6.0 | 0.00 | 0.00 | 0.00 | 85 | 1014.2 |
| 20260831092648 | 83 | 66 | 4.0 | 6.0 | 0.00 | 0.00 | 0.00 | 85 | 1013.9 |
| 20260831092146 | 83 | 61 | 4.0 | 5.0 | 0.00 | 0.00 | 0.00 | 84 | 1014.2 |
| 20260831091648 | 83 | 58 | 3.0 | 4.0 | 0.00 | 0.00 | 0.00 | 84 | 1014.2 |
| 20260831091146 | 83 | 80 | 2.0 | 6.0 | 0.00 | 0.00 | 0.00 | 84 | 1014.2 |
| 20260831090646 | 83 | 68 | 3.0 | 5.0 | 0.00 | 0.00 | 0.00 | 85 | 1014.2 |
| 20260831090147 | 83 | 71 | 2.0 | 7.0 | 0.00 | 0.00 | 0.00 | 85 | 1014.2 |
| 20260831085646 | 83 | 58 | 3.0 | 6.0 | 0.00 | 0.00 | 0.00 | 85 | 1013.9 |
| 20260831085146 | 83 | 65 | 4.0 | 6.0 | 0.00 | 0.00 | 0.00 | 85 | 1013.9 |
| 20260831084646 | 82 | 70 | 5.0 | 7.0 | 0.00 | 0.00 | 0.00 | 85 | 1014.2 |
| 20260831084147 | 82 | 74 | 4.0 | 6.0 | 0.00 | 0.00 | 0.00 | 85 | 1014.2 |
| 20260831083647 | 82 | 56 | 3.0 | 5.0 | 0.00 | 0.00 | 0.00 | 85 | 1014.2 |
| 20260831083146 | 82 | 61 | 6.0 | 6.0 | 0.00 | 0.00 | 0.00 | 85 | 1014.2 |
| 20260831082646 | 83 | 106 | 3.0 | 6.0 | 0.00 | 0.00 | 0.00 | 85 | 1014.2 |
| 20260831082146 | 83 | 66 | 2.0 | 4.0 | 0.00 | 0.00 | 0.00 | 84 | 1014.2 |
| 20260831081647 | 83 | 51 | 2.0 | 4.0 | 0.00 | 0.00 | 0.00 | 84 | 1014.2 |
| 20260831081146 | 83 | 70 | 2.0 | 5.0 | 0.00 | 0.00 | 0.00 | 84 | 1014.2 |
| 20260831080646 | 83 | 60 | 2.0 | 6.0 | 0.00 | 0.00 | 0.00 | 84 | 1014.2 |
| 20260831080146 | 83 | 88 | 2.0 | 4.0 | 0.00 | 0.00 | 0.00 | 84 | 1014.2 |
| 20260831075647 | 83 | 58 | 4.0 | 5.0 | 0.00 | 0.00 | 0.00 | 84 | 1013.9 |
| 20260831075147 | 83 | 69 | 3.0 | 5.0 | 0.00 | 0.00 | 0.00 | 84 | 1014.2 |
| 20260831074646 | 82 | 119 | 2.0 | 5.0 | 0.00 | 0.00 | 0.00 | 84 | 1014.2 |
| 20260831074147 | 82 | 74 | 3.0 | 4.0 | 0.00 | 0.00 | 0.00 | 85 | 1014.2 |
| 20260831073647 | 83 | 32 | 0.0 | 4.0 | 0.00 | 0.00 | 0.00 | 85 | 1014.2 |
| 20260831073146 | 83 | 70 | 3.0 | 6.0 | 0.00 | 0.00 | 0.00 | 85 | 1014.2 |
| 20260831072647 | 83 | 50 | 2.0 | 4.0 | 0.00 | 0.00 | 0.00 | 85 | 1014.2 |
| 20260831072151 | 83 | 58 | 5.0 | 7.0 | 0.00 | 0.00 | 0.00 | 85 | 1014.6 |
| 20260831071646 | 83 | 98 | 1.0 | 6.0 | 0.00 | 0.00 | 0.00 | 85 | 1014.2 |
| 20260831071146 | 83 | 57 | 4.0 | 8.0 | 0.00 | 0.00 | 0.00 | 85 | 1014.2 |
| 20260831070646 | 83 | 85 | 3.0 | 6.0 | 0.00 | 0.00 | 0.00 | 85 | 1014.2 |
| 20260831070147 | 83 | 58 | 7.0 | 10.0 | 0.00 | 0.00 | 0.00 | 85 | 1014.2 |
| 20260831065647 | 83 | 84 | 6.0 | 8.0 | 0.00 | 0.00 | 0.00 | 85 | 1014.2 |
| 20260831065146 | 83 | 88 | 3.0 | 8.0 | 0.00 | 0.00 | 0.00 | 85 | 1014.6 |
| 20260831064647 | 83 | 54 | 3.0 | 7.0 | 0.00 | 0.00 | 0.00 | 85 | 1014.6 |
| 20260831064147 | 83 | 72 | 5.0 | 7.0 | 0.00 | 0.00 | 0.00 | 85 | 1014.6 |
| 20260831063646 | 83 | 92 | 6.0 | 7.0 | 0.00 | 0.00 | 0.00 | 85 | 1014.6 |
| 20260831063146 | 83 | 217 | 2.0 | 5.0 | 0.00 | 0.00 | 0.00 | 84 | 1014.9 |
| 20260831062646 | 83 | 64 | 2.0 | 5.0 | 0.00 | 0.00 | 0.00 | 84 | 1014.9 |
| 20260831062146 | 83 | 77 | 2.0 | 8.0 | 0.00 | 0.00 | 0.00 | 84 | 1014.9 |
| 20260831061646 | 83 | 117 | 3.0 | 9.0 | 0.00 | 0.00 | 0.00 | 85 | 1015.2 |
| 20260831061146 | 83 | 47 | 4.0 | 4.0 | 0.00 | 0.00 | 0.00 | 85 | 1015.2 |
| 20260831060647 | 83 | 75 | 2.0 | 8.0 | 0.00 | 0.00 | 0.00 | 84 | 1015.2 |
| 20260831060148 | 83 | 81 | 3.0 | 8.0 | 0.00 | 0.00 | 0.00 | 84 | 1014.9 |
| 20260831055647 | 83 | 110 | 1.0 | 7.0 | 0.00 | 0.00 | 0.00 | 84 | 1015.2 |
| 20260831055146 | 83 | 143 | 7.0 | 7.0 | 0.00 | 0.00 | 0.00 | 84 | 1014.9 |
| 20260831054646 | 83 | 61 | 5.0 | 7.0 | 0.00 | 0.00 | 0.00 | 84 | 1015.2 |
| 20260831054146 | 83 | 76 | 5.0 | 7.0 | 0.00 | 0.00 | 0.00 | 85 | 1015.2 |
| 20260831053646 | 83 | 120 | 1.0 | 5.0 | 0.00 | 0.00 | 0.00 | 85 | 1015.2 |
| 20260831053146 | 83 | 123 | 2.0 | 6.0 | 0.00 | 0.00 | 0.00 | 85 | 1015.2 |
| 20260831052646 | 83 | 73 | 4.0 | 5.0 | 0.00 | 0.00 | 0.00 | 85 | 1015.2 |
| 20260831052147 | 83 | 67 | 6.0 | 11.0 | 0.00 | 0.00 | 0.00 | 84 | 1015.2 |
| 20260831051646 | 83 | 86 | 6.0 | 9.0 | 0.00 | 0.00 | 0.00 | 85 | 1015.2 |
| 20260831051148 | 83 | 70 | 5.0 | 9.0 | 0.00 | 0.00 | 0.00 | 85 | 1015.2 |
| 20260831050647 | 83 | 52 | 3.0 | 9.0 | 0.00 | 0.00 | 0.00 | 85 | 1015.2 |
| 20260831050147 | 83 | 68 | 5.0 | 7.0 | 0.00 | 0.00 | 0.00 | 85 | 1015.2 |
| 20260831045646 | 83 | 152 | 3.0 | 8.0 | 0.00 | 0.00 | 0.26 | 85 | 1015.2 |
| 20260831045146 | 83 | 57 | 7.0 | 8.0 | 0.00 | 0.00 | 0.26 | 85 | 1015.2 |
| 20260831044646 | 83 | 88 | 5.0 | 8.0 | 0.00 | 0.00 | 0.26 | 85 | 1015.2 |
| 20260831044147 | 83 | 84 | 3.0 | 10.0 | 0.00 | 0.00 | 0.26 | 85 | 1015.6 |
| 20260831043646 | 83 | 99 | 4.0 | 7.0 | 0.00 | 0.00 | 0.26 | 84 | 1015.2 |
| 20260831043146 | 83 | 79 | 3.0 | 9.0 | 0.00 | 0.00 | 0.26 | 84 | 1015.6 |
| 20260831042647 | 83 | 62 | 5.0 | 7.0 | 0.00 | 0.00 | 0.26 | 84 | 1015.6 |
| 20260831042146 | 83 | 82 | 2.0 | 6.0 | 0.00 | 0.00 | 0.26 | 84 | 1015.9 |
| 20260831041647 | 83 | 84 | 6.0 | 8.0 | 0.00 | 0.00 | 0.26 | 83 | 1015.6 |
| 20260831041147 | 83 | 84 | 2.0 | 4.0 | 0.00 | 0.00 | 0.26 | 83 | 1015.6 |
| 20260831040647 | 83 | 50 | 2.0 | 9.0 | 0.00 | 0.00 | 0.26 | 83 | 1015.6 |
| 20260831040154 | 83 | 50 | 8.0 | 10.0 | 0.00 | 0.00 | 0.26 | 83 | 1015.6 |
| 20260831035646 | 83 | 81 | 4.0 | 5.0 | 0.00 | 0.00 | 0.26 | 82 | 1015.6 |
| 20260831035147 | 83 | 39 | 3.0 | 5.0 | 0.00 | 0.00 | 0.26 | 82 | 1015.6 |
| 20260831034647 | 83 | 107 | 2.0 | 5.0 | 0.00 | 0.00 | 0.26 | 82 | 1015.6 |
| 20260831034147 | 83 | 80 | 5.0 | 6.0 | 0.00 | 0.00 | 0.26 | 82 | 1015.9 |
| 20260831033647 | 83 | 79 | 2.0 | 3.0 | 0.00 | 0.00 | 0.26 | 82 | 1015.6 |
| 20260831033147 | 84 | 50 | 4.0 | 10.0 | 0.00 | 0.00 | 0.26 | 81 | 1015.9 |
| 20260831032646 | 84 | 96 | 6.0 | 7.0 | 0.00 | 0.00 | 0.26 | 81 | 1015.9 |
| 20260831032147 | 84 | 222 | 1.0 | 4.0 | 0.00 | 0.00 | 0.26 | 81 | 1015.9 |
| 20260831031648 | 84 | 85 | 3.0 | 7.0 | 0.00 | 0.00 | 0.26 | 81 | 1015.9 |
| 20260831030711 | 84 | 63 | 3.0 | 9.0 | 0.00 | 0.00 | 0.26 | 81 | 1015.2 |
| 20260831030146 | 84 | 68 | 4.0 | 7.0 | 0.00 | 0.00 | 0.26 | 81 | 1015.6 |
| 20260831025646 | 83 | 69 | 4.0 | 7.0 | 0.00 | 0.00 | 0.26 | 81 | 1015.6 |
| 20260831025147 | 84 | 57 | 2.0 | 5.0 | 0.00 | 0.00 | 0.26 | 81 | 1015.6 |
| 20260831024646 | 84 | 71 | 6.0 | 9.0 | 0.00 | 0.00 | 0.26 | 80 | 1015.2 |
| 20260831024148 | 84 | 108 | 5.0 | 6.0 | 0.00 | 0.00 | 0.26 | 80 | 1015.6 |
| 20260831023646 | 84 | 72 | 2.0 | 4.0 | 0.00 | 0.00 | 0.26 | 80 | 1015.6 |
| 20260831023147 | 84 | 61 | 2.0 | 5.0 | 0.00 | 0.00 | 0.26 | 79 | 1015.6 |
| 20260831022646 | 84 | 77 | 2.0 | 7.0 | 0.00 | 0.00 | 0.26 | 79 | 1015.2 |
| 20260831022148 | 84 | 82 | 5.0 | 9.0 | 0.00 | 0.00 | 0.26 | 78 | 1015.2 |
| 20260831021647 | 84 | 62 | 7.0 | 10.0 | 0.00 | 0.00 | 0.26 | 78 | 1015.2 |
| 20260831021146 | 84 | 84 | 7.0 | 13.0 | 0.00 | 0.00 | 0.26 | 77 | 1015.2 |
| 20260831020646 | 84 | 64 | 9.0 | 9.0 | 0.00 | 0.00 | 0.26 | 79 | 1015.2 |
| 20260831020147 | 84 | 86 | 7.0 | 8.0 | 0.00 | 0.00 | 0.26 | 80 | 1015.2 |